Weather History for Billings, MT

Change the Weather History Date:

Monday, July 15, 2013

  Actual Average Record
Temperature  
Mean Temperature 78 °F 73 °F  
Max Temperature 96 °F 87 °F 101 °F (1935)
Min Temperature 60 °F 59 °F 46 °F (1983)
Degree Days  
Heating Degree Days 0 0  
Month to date heating degree days 0 12  
Since 1 June heating degree days 73 108  
Since 1 July heating degree days 0 12  
Cooling Degree Days 13 9  
Month to date cooling degree days 165 108  
Year to date cooling degree days 288 210  
Since 1 June cooling degree days 261 193  
Growing Degree Days 28 (Base 50)    
Moisture  
Dew Point 49 °F    
Average Humidity 45    
Maximum Humidity 78    
Minimum Humidity 12    
Precipitation  
Precipitation 0.00 in 0.05 in 0.30 in (1983)
Month to date precipitation 0.51 0.70  
Year to date precipitation 7.83 8.68  
Snow  
Snow 0.00 in 0.00 in 0.00 in (2002)
Month to date snowfall 0.0 0.0  
Since 1 June snowfall 0.0 0.0  
Since 1 July snowfall 0.0 0.0  
Snow Depth 0.00 in    
Sea Level Pressure  
Sea Level Pressure 29.87 in    
Wind  
Wind Speed 7 mph (SSE)    
Max Wind Speed 29 mph    
Max Gust Speed 38 mph    
Visibility 10 miles    
Events      
T = Trace of Precipitation, MM = Missing Value Source: NWS Daily Summary

Daily Weather History Graph

Daily Weather History Graph

Search for Another Location

Airport:

Trip Planner

Search our weather history database for the weather conditions in past years. The results will help you decide how hot, cold, wet, or windy it might be!

Date:

Astronomy

Jul. 15, 2013 Rise Set
Actual Time 5:39 AM MDT 9:00 PM MDT
Civil Twilight 5:02 AM MDT 9:37 PM MDT
Nautical Twilight 4:14 AM MDT 10:25 PM MDT
Astronomical Twilight 3:13 AM MDT 11:25 PM MDT
Moon 1:28 PM MDT (7/15) No Moon Set
Length of Visible Light 16h 34m
Length of Day
15h 21m
Waxing Crescent, 46% of the Moon is Illuminated
Jul 15
Waxing Crescent
Jul 15
First Quarter
Jul 22
Full
Jul 29
Last Quarter
Aug 6
New

Hourly Weather History & Observations

Time (MDT) Temp. Heat Index Dew Point Humidity Pressure Visibility Wind Dir Wind Speed Gust Speed Precip Events Conditions
12:53 AM 66.9 °F - 55.0 °F 66% 29.96 in 10.0 mi NNE 4.6 mph - N/A   Clear
1:53 AM 66.0 °F - 55.0 °F 68% 29.96 in 10.0 mi North 5.8 mph - N/A   Clear
2:53 AM 64.9 °F - 55.0 °F 70% 29.95 in 10.0 mi North 3.5 mph - N/A   Clear
3:53 AM 63.0 °F - 55.0 °F 75% 29.94 in 10.0 mi Calm Calm - N/A   Clear
4:53 AM 60.1 °F - 54.0 °F 80% 29.93 in 10.0 mi Calm Calm - N/A   Partly Cloudy
5:53 AM 62.1 °F - 55.0 °F 78% 29.92 in 10.0 mi Calm Calm - N/A   Scattered Clouds
6:53 AM 63.0 °F - 55.0 °F 75% 29.92 in 10.0 mi WNW 6.9 mph - N/A   Partly Cloudy
7:53 AM 66.9 °F - 55.9 °F 68% 29.93 in 10.0 mi WNW 6.9 mph - N/A   Partly Cloudy
8:53 AM 69.1 °F - 57.0 °F 65% 29.93 in 10.0 mi SW 5.8 mph - N/A   Partly Cloudy
9:53 AM 73.0 °F - 57.9 °F 59% 29.92 in 10.0 mi SSW 6.9 mph - N/A   Partly Cloudy
10:53 AM 78.1 °F - 57.0 °F 48% 29.91 in 10.0 mi South 6.9 mph - N/A   Partly Cloudy
11:53 AM 84.0 °F 83.8 °F 59.0 °F 43% 29.89 in 10.0 mi SW 8.1 mph - N/A   Partly Cloudy
12:53 PM 89.1 °F - 52.0 °F 28% 29.87 in 10.0 mi South 6.9 mph - N/A   Partly Cloudy
1:53 PM 91.0 °F - 48.0 °F 23% 29.84 in 10.0 mi SSW 3.5 mph - N/A   Partly Cloudy
2:53 PM 93.9 °F - 45.0 °F 18% 29.82 in 10.0 mi South 5.8 mph - N/A   Scattered Clouds
3:53 PM 95.0 °F - 41.0 °F 15% 29.81 in 10.0 mi SSE 4.6 mph - N/A   Scattered Clouds
4:53 PM 96.1 °F - 36.0 °F 12% 29.79 in 10.0 mi WSW 6.9 mph - N/A   Scattered Clouds
5:46 PM 96.1 °F - 37.0 °F 13% 29.89 in 10.0 mi ENE 11.5 mph 19.6 mph N/A   Partly Cloudy
5:53 PM 95.0 °F - 35.1 °F 12% 29.77 in 10.0 mi ENE 8.1 mph 19.6 mph N/A   Partly Cloudy
6:53 PM 93.9 °F - 39.9 °F 15% 29.76 in 10.0 mi ENE 9.2 mph - N/A   Partly Cloudy
7:53 PM 90.0 °F - 42.1 °F 19% 29.77 in 10.0 mi ENE 8.1 mph - N/A   Partly Cloudy
8:53 PM 87.1 °F - 41.0 °F 20% 29.79 in 10.0 mi ESE 8.1 mph - N/A   Partly Cloudy
9:53 PM 86.0 °F - 46.9 °F 26% 29.80 in 10.0 mi SE 5.8 mph - N/A   Partly Cloudy
10:53 PM 82.9 °F - 46.0 °F 27% 29.81 in 10.0 mi ESE 5.8 mph - N/A   Partly Cloudy
11:53 PM 78.1 °F - 45.0 °F 31% 29.83 in 10.0 mi NNW 16.1 mph - N/A   Scattered Clouds